This demonstration page uses our WeatherBlox Daily Observations layout. Learn more.

Left ArrowRight Arrow

Hourly Observations for February 25, 2019

Temp ( °F °C ) Dew Point ( °F °C ) Humidity (%) Winds ( mph kmh ) Pressure ( in mb ) Visibility ( mi km ) Precip ( " mm )
12:53 am 00:53 Clear 30 -1.1 16 -8.9 56 56 W 16 26 30.18 1022 10 16.0934 N/A
1:53 am 01:53 Clear 29 -1.7 16 -8.9 58 58 W 16 26 30.21 1023 10 16.0934 N/A
2:53 am 02:53 Clear 28 -2.2 14 -10 56 56 W 13 20 30.23 1024 10 16.0934 N/A
3:53 am 03:53 Clear 27 -2.8 14 -10 58 58 W 12 19 30.26 1025 10 16.0934 N/A
4:53 am 04:53 Clear 26 -3.3 13 -10.6 57 57 W 9 15 30.29 1026 10 16.0934 N/A
5:53 am 05:53 Clear 24 -4.4 9 -12.8 52 52 W 10 17 30.35 1028 10 16.0934 N/A
6:53 am 06:53 Clear 24 -4.4 9 -12.8 52 52 W 9 15 30.38 1029 10 16.0934 N/A
7:53 am 07:53 Sunny 23 -5 10 -12.2 57 57 W 13 20 30.42 1030 10 16.0934 N/A
8:53 am 08:53 Sunny 24 -4.4 9 -12.8 52 52 W 14 22 30.45 1031 10 16.0934 N/A
9:53 am 09:53 Sunny 26 -3.3 7 -13.9 44 44 W 14 22 30.47 1032 10 16.0934 N/A
10:53 am 10:53 Sunny 29 -1.7 7 -13.9 39 39 WNW 15 24 30.49 1033 10 16.0934 N/A
11:53 am 11:53 Sunny 31 -0.6 9 -12.8 40 40 W 10 17 30.49 1032 10 16.0934 N/A
12:53 pm 12:53 Sunny 34 1.1 8 -13.3 34 34 W 7 11 30.49 1032 10 16.0934 N/A
1:53 pm 13:53 Sunny 36 2.2 8 -13.3 31 31 WNW 12 19 30.48 1032 10 16.0934 N/A
2:53 pm 14:53 Sunny 38 3.3 8 -13.3 29 29 NW 12 19 30.47 1032 10 16.0934 N/A
3:53 pm 15:53 Sunny 39 3.9 7 -13.9 26 26 WNW 12 19 30.46 1032 10 16.0934 N/A
4:53 pm 16:53 Sunny 39 3.9 9 -12.8 29 29 VRB 7 11 30.45 1031 10 16.0934 N/A
5:53 pm 17:53 Sunny 37 2.8 10 -12.2 33 33 WSW 7 11 30.45 1031 10 16.0934 N/A
6:53 pm 18:53 Clear 32 undefined 14 -10 47 47 W 3 6 30.45 1031 10 16.0934 N/A
7:53 pm 19:53 Clear 29 -1.7 18 -7.8 63 63 N N/A 30.46 1031 10 16.0934 N/A
8:53 pm 20:53 Cloudy 30 -1.1 20 -6.7 66 66 N N/A 30.45 1031 10 16.0934 N/A
9:53 pm 21:53 Cloudy 31 -0.6 21 -6.1 67 67 N N/A 30.45 1031 10 16.0934 N/A
10:53 pm 22:53 Cloudy 30 -1.1 19 -7.2 64 64 N N/A 30.43 1031 10 16.0934 N/A
11:53 pm 23:53 Cloudy 30 -1.1 22 -5.6 72 72 N N/A 30.44 1031 10 16.0934 N/A

Powered by AerisWeather